Total_Precipitation_Accumulation
0.62 0.76 0.64 0.41 0.38 0.34 0.30 0.35 0.30 0.19 0.18 0.25 0.24 0.18 0.12 0.11 0.11 0.12 0.12 0.12 0.12 0.11 0.10 0.12 0.19 0.24 0.33 0.44 0.49 0.56 0.62 0.73 0.85 0.95 1.10 1.06 1.01 1.04 1.07 1.03 1.01 0.99 1.05 1.06
0.76 0.68 0.35 0.25 0.29 0.35 0.39 0.42 0.33 0.23 0.18 0.29 0.28 0.19 0.11 0.11 0.11 0.11 0.10 0.12 0.14 0.11 0.10 0.12 0.19 0.24 0.31 0.44 0.49 0.56 0.66 0.75 0.82 0.90 0.98 1.05 1.02 1.05 1.10 1.07 1.05 1.02 1.00 1.05
0.56 0.38 0.20 0.31 0.41 0.50 0.46 0.38 0.28 0.26 0.24 0.31 0.37 0.29 0.14 0.12 0.10 0.10 0.10 0.10 0.15 0.16 0.13 0.14 0.22 0.28 0.32 0.42 0.50 0.56 0.66 0.75 0.81 0.97 1.07 1.14 1.25 1.24 1.27 1.26 1.15 1.06 1.01 0.99
0.43 0.25 0.24 0.37 0.43 0.51 0.50 0.26 0.24 0.28 0.45 0.51 0.43 0.49 0.18 0.14 0.13 0.12 0.10 0.09 0.12 0.14 0.14 0.15 0.20 0.29 0.34 0.39 0.50 0.59 0.69 0.76 0.80 0.99 1.14 1.11 1.18 1.18 1.12 1.08 1.11 1.08 1.04 0.99
0.55 0.29 0.31 0.38 0.30 0.34 0.39 0.23 0.27 0.36 0.51 0.61 0.44 0.49 0.25 0.14 0.14 0.11 0.09 0.08 0.10 0.12 0.13 0.13 0.15 0.21 0.29 0.36 0.47 0.58 0.72 0.82 0.84 0.92 1.11 1.15 1.09 1.06 1.06 1.09 1.09 1.12 1.12 1.06
0.49 0.32 0.37 0.31 0.21 0.25 0.36 0.43 0.49 0.55 0.83 1.03 0.39 0.38 0.29 0.24 0.24 0.15 0.09 0.08 0.10 0.10 0.12 0.12 0.11 0.13 0.26 0.37 0.47 0.55 0.68 0.81 0.87 0.87 0.99 1.15 1.11 1.06 1.04 1.09 1.13 1.13 1.16 1.13
0.60 0.42 0.35 0.30 0.35 0.42 0.61 0.94 1.34 1.34 1.36 0.82 0.17 0.25 0.30 0.23 0.20 0.19 0.14 0.10 0.10 0.10 0.14 0.14 0.12 0.13 0.20 0.32 0.43 0.53 0.63 0.72 0.80 0.83 0.88 0.98 1.10 1.06 0.99 0.94 1.00 1.08 1.15 1.11
0.68 0.52 0.39 0.35 0.39 0.55 0.65 0.85 1.11 1.00 0.64 0.25 0.11 0.23 0.24 0.17 0.13 0.13 0.10 0.09 0.10 0.09 0.10 0.11 0.13 0.15 0.18 0.23 0.30 0.43 0.54 0.67 0.80 0.84 0.84 0.89 0.99 1.10 1.02 0.94 0.92 0.97 1.02 0.99
0.72 0.47 0.28 0.27 0.27 0.40 0.62 0.66 0.56 0.72 0.52 0.32 0.21 0.19 0.16 0.07 0.06 0.08 0.09 0.08 0.09 0.09 0.09 0.10 0.12 0.15 0.17 0.22 0.25 0.36 0.45 0.59 0.78 0.89 0.88 0.88 0.93 1.01 1.03 0.95 0.91 0.93 0.93 0.93
0.77 0.59 0.27 0.24 0.35 0.46 0.52 0.61 0.75 1.08 0.88 0.45 0.23 0.21 0.23 0.14 0.11 0.10 0.10 0.10 0.09 0.10 0.11 0.11 0.12 0.15 0.17 0.20 0.23 0.31 0.39 0.47 0.60 0.79 0.93 0.93 0.90 0.91 0.98 1.01 0.97 0.92 0.92 0.92
0.77 0.78 0.46 0.40 0.57 0.63 0.62 0.81 1.02 1.05 0.76 0.54 0.33 0.30 0.29 0.22 0.18 0.15 0.12 0.12 0.11 0.10 0.11 0.11 0.13 0.15 0.18 0.21 0.26 0.32 0.39 0.45 0.51 0.61 0.78 0.90 0.91 0.95 1.00 1.04 0.99 0.98 0.94 0.93
0.74 0.93 0.62 0.38 0.38 0.38 0.53 0.71 0.90 1.10 0.77 0.41 0.36 0.31 0.24 0.19 0.16 0.15 0.13 0.11 0.09 0.09 0.09 0.09 0.11 0.16 0.20 0.24 0.29 0.35 0.43 0.45 0.47 0.55 0.66 0.78 0.89 0.94 1.00 0.99 1.01 1.06 1.04 0.97
1.05 1.40 1.13 0.71 0.61 0.57 0.66 0.60 0.65 0.79 0.73 0.46 0.34 0.24 0.15 0.12 0.12 0.12 0.13 0.12 0.10 0.08 0.08 0.09 0.11 0.16 0.21 0.26 0.29 0.37 0.44 0.44 0.45 0.55 0.64 0.74 0.86 0.89 0.93 0.90 0.93 1.08 1.19 1.14
1.35 1.46 1.02 0.79 0.65 0.62 0.58 0.47 0.45 0.72 0.86 0.45 0.21 0.16 0.12 0.12 0.12 0.11 0.13 0.14 0.12 0.09 0.09 0.10 0.13 0.16 0.20 0.22 0.27 0.33 0.41 0.47 0.49 0.52 0.62 0.71 0.80 0.82 0.82 0.82 0.83 0.95 1.12 1.21
1.17 1.17 0.53 0.27 0.22 0.30 0.33 0.30 0.32 0.45 0.44 0.34 0.17 0.16 0.16 0.15 0.15 0.15 0.15 0.14 0.13 0.10 0.09 0.10 0.13 0.16 0.21 0.25 0.28 0.31 0.37 0.47 0.54 0.52 0.60 0.63 0.69 0.78 0.78 0.76 0.80 0.89 1.02 1.09
1.10 1.06 0.52 0.28 0.17 0.22 0.26 0.21 0.22 0.24 0.20 0.17 0.13 0.16 0.17 0.17 0.15 0.14 0.14 0.13 0.14 0.12 0.10 0.11 0.13 0.17 0.23 0.28 0.31 0.34 0.38 0.44 0.52 0.52 0.57 0.59 0.66 0.77 0.81 0.75 0.78 0.89 1.00 1.04
1.09 1.10 0.92 0.51 0.22 0.41 0.44 0.23 0.20 0.21 0.20 0.17 0.19 0.20 0.17 0.17 0.16 0.17 0.16 0.15 0.15 0.13 0.12 0.12 0.15 0.19 0.23 0.29 0.30 0.35 0.38 0.42 0.49 0.51 0.53 0.59 0.68 0.72 0.79 0.79 0.81 0.91 1.01 1.03
0.89 1.05 1.26 0.82 0.60 0.85 0.40 0.17 0.15 0.20 0.22 0.19 0.17 0.14 0.14 0.17 0.18 0.20 0.18 0.18 0.16 0.16 0.17 0.16 0.18 0.22 0.22 0.26 0.26 0.30 0.35 0.45 0.52 0.52 0.49 0.56 0.64 0.67 0.77 0.82 0.84 0.94 1.03 1.00
0.46 0.92 1.40 1.15 0.82 0.42 0.22 0.20 0.26 0.32 0.33 0.22 0.16 0.11 0.09 0.12 0.16 0.21 0.17 0.16 0.17 0.18 0.21 0.20 0.20 0.21 0.21 0.24 0.25 0.24 0.29 0.41 0.51 0.55 0.49 0.51 0.60 0.65 0.74 0.80 0.87 0.94 1.02 0.99
0.45 0.86 1.49 1.27 0.92 0.42 0.27 0.19 0.22 0.32 0.43 0.24 0.17 0.13 0.12 0.15 0.24 0.25 0.20 0.17 0.17 0.17 0.19 0.20 0.19 0.19 0.21 0.24 0.25 0.23 0.26 0.33 0.45 0.53 0.45 0.48 0.55 0.58 0.66 0.74 0.84 0.92 0.92 0.91
0.82 1.29 1.47 1.05 0.81 0.32 0.21 0.20 0.25 0.50 0.55 0.26 0.20 0.19 0.18 0.21 0.25 0.22 0.21 0.22 0.21 0.20 0.19 0.18 0.18 0.19 0.22 0.25 0.25 0.25 0.27 0.29 0.38 0.50 0.46 0.48 0.52 0.56 0.63 0.72 0.76 0.83 0.87 0.86
0.68 0.94 0.91 0.79 0.84 0.42 0.23 0.31 0.51 0.57 0.30 0.22 0.20 0.18 0.18 0.17 0.14 0.14 0.17 0.22 0.25 0.22 0.19 0.19 0.18 0.19 0.19 0.22 0.25 0.27 0.30 0.31 0.37 0.46 0.48 0.53 0.57 0.59 0.63 0.69 0.68 0.71 0.81 0.85
0.48 0.64 0.71 0.67 0.52 0.32 0.28 0.36 0.38 0.30 0.25 0.20 0.19 0.18 0.17 0.16 0.14 0.15 0.18 0.23 0.26 0.24 0.21 0.21 0.20 0.18 0.18 0.20 0.25 0.31 0.36 0.35 0.40 0.45 0.48 0.54 0.61 0.64 0.66 0.65 0.65 0.69 0.76 0.83
0.40 0.39 0.48 0.44 0.30 0.22 0.21 0.22 0.21 0.19 0.19 0.19 0.18 0.17 0.17 0.16 0.14 0.15 0.17 0.22 0.24 0.25 0.24 0.24 0.23 0.21 0.21 0.20 0.24 0.32 0.38 0.38 0.42 0.45 0.47 0.52 0.57 0.64 0.67 0.63 0.61 0.63 0.71 0.82
0.31 0.34 0.37 0.32 0.20 0.19 0.18 0.17 0.16 0.14 0.13 0.13 0.13 0.12 0.13 0.15 0.15 0.16 0.18 0.22 0.26 0.27 0.26 0.26 0.26 0.24 0.23 0.23 0.26 0.34 0.38 0.39 0.43 0.43 0.43 0.47 0.49 0.60 0.70 0.69 0.64 0.63 0.64 0.78
0.18 0.23 0.30 0.27 0.19 0.22 0.20 0.16 0.15 0.14 0.14 0.14 0.14 0.12 0.11 0.13 0.15 0.16 0.17 0.20 0.27 0.30 0.29 0.28 0.28 0.27 0.27 0.28 0.31 0.37 0.40 0.40 0.40 0.42 0.41 0.44 0.47 0.55 0.65 0.68 0.70 0.76 0.74 0.77